Location: M?digepalle
(16.1753°N, 80.3496°E)
Time: 08:52:58
(UTC+00:00)

Cosmos 1697 Rocket - Pass Details

Date: 29 October 2020
Orbit: 831 x 845 km, 71.0° (Epoch: 28 November)

Event Time Altitude Azimuth Distance (km) Brightness Sun altitude
Exits shadow 22:43:02 - 359° (N) 3,384 5.8 -27.3°
Reaches altitude 10° 22:45:44 10° 9° (N) 2,458 5.1 -26.6°
Maximum altitude 22:50:40 31° 70° (ENE) 1,444 4.4 -25.4°
Drops below altitude 10° 22:55:35 10° 131° (SE) 2,457 5.9 -24.3°
Sets 22:58:18 0° 142° (SE) 3,390 6.5 -23.6°
